Mountain Home, AR

12:26 AM CDT on August 24, 2017 (GMT -0500)
Baxter County Regional

Weather History for KBPK - December, 2012

Change the Weather History Date:

Saturday, December 1, 2012

  Actual Average (KFLP) Record (KFLP)
Temperature  
Mean Temperature 61 °F -  
Max Temperature 69 °F 53 °F 69 °F (2012)
Min Temperature 53 °F 33 °F 19 °F (2006)
Degree Days  
Heating Degree Days 4    
Growing Degree Days 11 (Base 50)    
Moisture  
Dew Point 53 °F    
Average Humidity 76    
Maximum Humidity 86    
Minimum Humidity 60    
Precipitation  
Precipitation 0.00 in - - ()
Sea Level Pressure  
Sea Level Pressure 30.04 in    
Wind  
Wind Speed 7 mph (SSE)    
Max Wind Speed 16 mph    
Max Gust Speed 28 mph    
Visibility 8 miles    
Events      
Averages and records for this station are not official NWS values.
T = Trace of Precipitation, MM = Missing Value Source: NWS Daily Summary

Daily Weather History Graph

Daily Weather History Graph

Search for Another Location

Airport or City:

Trip Planner

Search our weather history database for the weather conditions in past years. The results will help you decide how hot, cold, wet, or windy it might be!

Date:

Astronomy

Dec. 01, 2012 Rise Set
Actual Time 7:03 AM CST 4:54 PM CST
Civil Twilight 6:35 AM CST 5:23 PM CST
Nautical Twilight 6:03 AM CST 5:54 PM CST
Astronomical Twilight 5:32 AM CST 6:26 PM CST
Moon 7:43 PM CST (12/1) 9:17 AM CST (12/1)
Length of Visible Light 10h 48m
Length of Day
9h 51m
Waning Gibbous, 91% of the Moon is Illuminated
Dec 1
Waning Gibbous
Dec 6
Last Quarter
Dec 13
New
Dec 19
First Quarter
Dec 28
Full

Hourly Weather History & Observations

Time (CST) Temp. Dew Point Humidity Pressure Visibility Wind Dir Wind Speed Gust Speed Precip Events Conditions
12:05 AM 53.6 °F 48.2 °F 82% 30.10 in 8.0 mi SE 4.6 mph - N/A   Scattered Clouds
12:53 AM 53.1 °F 48.9 °F 86% 30.09 in 7.0 mi SE 4.6 mph - N/A   Clear
1:53 AM 53.1 °F 48.9 °F 86% 30.09 in 7.0 mi SE 3.5 mph - N/A   Clear
2:53 AM 54.0 °F 50.0 °F 86% 30.10 in 7.0 mi ESE 3.5 mph - N/A   Mostly Cloudy
3:53 AM 55.9 °F 51.1 °F 84% 30.09 in 8.0 mi SE 5.8 mph - N/A   Overcast
4:53 AM 57.0 °F 51.1 °F 81% 30.08 in 8.0 mi ESE 5.8 mph - N/A   Overcast
5:13 AM 57.2 °F 51.8 °F 82% 30.09 in 8.0 mi ESE 5.8 mph - N/A   Overcast
5:53 AM 55.9 °F 50.0 °F 80% 30.07 in 8.0 mi SE 6.9 mph - N/A   Scattered Clouds
6:46 AM 55.4 °F 50.0 °F 82% 30.08 in 8.0 mi SE 8.1 mph - N/A   Mostly Cloudy
6:53 AM 55.0 °F 50.0 °F 83% 30.08 in 8.0 mi SE 6.9 mph - N/A   Scattered Clouds
7:53 AM 55.9 °F 51.1 °F 84% 30.08 in 7.0 mi SE 5.8 mph - N/A   Mostly Cloudy
8:53 AM 60.1 °F 53.1 °F 78% 30.07 in 8.0 mi SSE 8.1 mph - N/A   Overcast
9:53 AM 64.0 °F 54.0 °F 70% 30.06 in 8.0 mi South 9.2 mph 17.3 mph N/A   Overcast
10:15 AM 66.2 °F 55.4 °F 68% 30.07 in 8.0 mi South 13.8 mph 19.6 mph N/A   Scattered Clouds
10:53 AM 66.0 °F 55.0 °F 68% 30.06 in 8.0 mi South 11.5 mph 24.2 mph N/A   Partly Cloudy
11:44 AM 66.2 °F 55.4 °F 68% 30.04 in 8.0 mi South 11.5 mph 24.2 mph N/A   Mostly Cloudy
11:53 AM 66.9 °F 55.0 °F 66% 30.03 in 8.0 mi SSW 12.7 mph 27.6 mph N/A   Mostly Cloudy
12:53 PM 66.0 °F 55.0 °F 68% 30.00 in 8.0 mi South 12.7 mph 23.0 mph N/A   Overcast
2:08 PM 69.8 °F 55.4 °F 60% 29.97 in 8.0 mi South 11.5 mph 20.7 mph N/A   Mostly Cloudy
3:53 PM 69.1 °F 55.9 °F 63% 29.95 in 9.0 mi South 16.1 mph 27.6 mph N/A   Overcast
4:53 PM 66.9 °F 55.9 °F 68% 29.96 in 9.0 mi South 10.4 mph 20.7 mph N/A   Mostly Cloudy
5:53 PM 66.0 °F 55.9 °F 70% 29.96 in 10.0 mi SSE 11.5 mph 17.3 mph N/A   Partly Cloudy
6:53 PM 64.0 °F 55.0 °F 73% 29.95 in 10.0 mi SE 6.9 mph - N/A   Partly Cloudy
7:53 PM 62.1 °F 55.0 °F 78% 29.97 in 9.0 mi SSE 6.9 mph - N/A   Clear
8:53 PM 63.0 °F 55.9 °F 78% 29.97 in 9.0 mi SSE 6.9 mph - N/A   Clear
9:53 PM 62.1 °F 55.9 °F 80% 29.99 in 9.0 mi SSE 4.6 mph - N/A   Partly Cloudy
10:53 PM 61.0 °F 55.9 °F 83% 29.99 in 9.0 mi SSE 5.8 mph - N/A   Clear
11:53 PM 62.1 °F 57.0 °F 84% 29.99 in 9.0 mi South 8.1 mph - N/A   Clear